#timestamp,LO_Frequency,Hit,StdDev 
1508040015.6,286046999.7,N
1508040035.4,286047002.8,N
1508040055.2,286047002.3,N
1508040075.1,286046999.8,N
1508040076.0,286046999.8,N
1508040095.8,286047000.1,N
1508040115.7,286047000.7,N
1508040135.5,286047000.2,N
1508040155.3,286046998.5,N
1508040175.2,286046998.1,N
1508040195.0,286046999.3,N
1508040195.9,286046999.3,N
1508040215.8,286046999.0,N
1508040235.6,286046999.4,N
1508040255.4,286046999.4,N
1508040275.3,286046999.4,N
1508040295.1,286046998.4,N
1508040315.8,286046998.4,N
1508040335.7,286046996.5,N
1508040355.5,286046999.0,N
1508040375.4,286046996.5,N
1508040395.2,286046997.2,N
1508040415.0,286046998.7,N
1508040415.9,286046998.7,N
1508040435.8,286047000.7,N
1508040455.6,286046998.2,N
1508040475.5,286046996.9,N
1508040495.3,286046996.9,N
1508040515.1,286046996.9,N
1508040535.9,286046999.2,N
1508040555.7,286046996.8,N
1508040575.5,286046997.3,N
1508040595.4,286046997.7,N
1508040615.2,286046999.6,N
1508040635.1,286046995.3,Y
1508040636.0,286046995.3,P
1508040655.8,286046999.2,N
1508040675.6,286046999.1,N
1508040695.5,286046999.4,N
1508040715.3,286046999.2,N
1508040735.2,286046996.5,N
1508040755.9,286046996.7,N
1508040775.7,286047000.7,N
1508040795.6,286047000.9,N
1508040815.4,286047000.0,N
1508040835.3,286047001.2,N
1508040855.1,286046998.6,N
1508040856.0,286046998.6,N
1508040875.8,286047000.4,N
1508040895.7,286047000.6,N
1508040915.5,286046998.2,N
1508040935.3,286046998.6,N
1508040955.2,286047000.7,N
1508040975.0,286046998.6,N
1508040975.9,286046998.6,N
1508040995.8,286046998.6,N
1508041015.6,286047000.6,N
1508041035.4,286046998.4,N
1508041055.3,286046997.0,N
1508041075.1,286046996.5,N
1508041095.9,286046997.7,N
1508041115.7,286046999.4,N
1508041135.5,286046999.4,N
1508041155.4,286046997.6,N
1508041175.2,286046997.0,N
1508041195.0,286046997.9,N
1508041195.9,286046997.9,N
1508041215.8,286046995.2,Y
1508041235.6,286046997.5,P
1508041255.5,286046998.5,N
1508041275.3,286046996.9,P
1508041295.1,286046998.9,N
1508041315.9,286047000.7,N
1508041335.7,286046998.3,N
1508041355.6,286046998.3,N
1508041375.4,286047001.2,N
1508041395.2,286047000.6,N
1508041415.1,286047000.3,N
1508041416.0,286047000.3,N
1508041435.8,286047000.3,N
1508041455.6,286047002.6,N
1508041475.5,286047002.1,N
1508041525.3,286046999.8,E
1508041535.3,286047000.8,N
1508041555.1,286047000.8,P
1508041575.8,286046999.0,P
1508041595.7,286046998.8,N
1508041615.5,286046998.8,N
1508041635.4,286047000.5,N
1508041655.2,286046998.6,N
1508041675.0,286046999.2,N
1508041675.9,286046999.2,N
1508041695.8,286046998.5,N
1508041715.6,286046998.8,N
1508041735.5,286046998.3,N
1508041755.3,286047000.8,N
1508041775.1,286047001.2,N
1508041795.9,286046999.8,N
1508041815.7,286047000.0,N
1508041835.5,286047000.4,N
1508041855.4,286047000.0,N
1508041875.2,286046999.8,N
1508041895.1,286046999.9,N
1508041896.0,286046999.9,N
1508041915.8,286047000.1,N
1508041935.6,286047000.1,N
1508041955.5,286047002.0,N
1508041975.3,286047002.2,N
1508041995.2,286047002.9,N
1508042015.9,286047004.0,Y
1508042035.7,286047001.7,P
1508042055.6,286047003.2,P
1508042075.4,286047004.3,P
1508042095.3,286047003.5,N
1508042115.1,286047003.0,N
1508042116.0,286047003.0,N
1508042135.8,286047002.9,N
1508042155.7,286047002.9,N
1508042175.5,286047005.6,Y
1508042195.3,286047003.6,P
1508042215.2,286047004.0,P
1508042235.0,286047001.4,N
1508042235.9,286047001.4,N
1508042255.8,286047004.3,Y
1508042275.6,286047000.9,P
1508042295.4,286047002.6,N
1508042315.3,286047000.5,N
1508042335.1,286046998.7,N
1508042355.9,286046998.3,N
1508042375.7,286046998.4,N
1508042395.5,286047000.3,N
1508042415.4,286047000.3,N
1508042435.2,286047001.1,N
1508042455.0,286047000.0,N
1508042456.0,286047000.0,N
1508042475.8,286046998.7,N
1508042495.6,286046997.2,N
1508042515.5,286046996.6,N
1508042535.3,286046997.9,N
1508042555.1,286046995.0,N
1508042575.9,286046994.9,N
1508042595.7,286046996.6,N
1508042615.6,286046997.1,N
1508042635.4,286046999.6,N
1508042655.2,286047000.7,N
1508042675.1,286047000.8,N
1508042676.0,286047000.8,N
1508042695.8,286046999.3,N
1508042715.6,286046998.4,N
1508042735.5,286046999.5,N
1508042755.3,286046999.4,N
1508042775.2,286046999.1,N
1508042795.9,286046997.3,N
1508042815.7,286046999.5,N
1508042835.6,286046998.5,N
1508042855.4,286046999.2,N
1508042875.3,286046999.4,N
1508042895.1,286047000.8,N
1508042896.0,286047000.8,N
1508042915.8,286046998.8,N
1508042935.7,286047001.2,N
1508042955.5,286046998.9,N
1508042975.4,286046999.5,N
1508042995.2,286046998.9,N
1508043015.0,286046996.5,N
1508043015.9,286046996.5,N
1508043035.8,286046998.7,N
1508043055.6,286046998.3,N
1508043075.4,286047000.8,N
1508043095.3,286047000.6,N
1508043115.1,286047000.9,N
1508043135.9,286047000.4,N
1508043155.7,286047000.5,N
1508043175.5,286047000.3,N
1508043195.4,286046998.6,N
1508043215.2,286046998.3,N
1508043235.1,286047001.2,N
1508043236.0,286047001.2,N
1508043255.8,286046998.1,N
1508043275.6,286046998.1,N
1508043295.5,286046998.5,N
1508043315.3,286047000.8,N
1508043335.1,286047000.2,N
1508043355.9,286047000.2,N
1508043375.7,286047000.6,N
1508043395.6,286047002.7,N
1508043415.4,286047002.4,N
1508043435.2,286047001.9,N
1508043455.1,286047000.2,N
1508043456.0,286047000.2,N
1508043475.8,286047002.8,N
1508043495.7,286047002.1,N
1508043515.5,286047000.5,N
1508043535.3,286047002.4,N
1508043555.2,286046998.8,N
1508043575.0,286046999.4,N
1508043575.9,286046999.4,N
1508043595.7,286046998.3,N
